Location: Howard City Library
(37.4684°N, 96.2639°W)
Time: 09:32:34
(UTC+00:00)

STARLINK-1065 - Pass Details

Date: 18 February 2020
Orbit: 547 x 551 km, 53.0° (Epoch: 29 March)

Event Time Altitude Azimuth Distance (km) Brightness Sun altitude
Exits shadow 11:22:40 61° 195° (SSW) 627 3.7 -22.2°
Drops below altitude 10° 11:26:25 10° 144° (SE) 1,818 6.7 -21.5°
Sets 11:28:39 0° 141° (SE) 2,709 7.7 -21.0°
